Wind_Speed
24 24 23 22 21 21 21 21 21 21 21 20 21 22 24 26 27 28 30 31 32 33 33 33 33 33 33 33 33 33 33 34 34 34 34 34 35 35 35 36 38 39 39 39 39 38 38 39 40 40 39 39 39 39 41 41 43 50 55 56 56 51 45
27 26 26 24 24 24 24 24 25 24 24 24 25 26 27 28 29 30 32 33 34 34 34 34 34 34 34 33 33 33 34 34 34 34 35 35 36 36 37 37 39 39 38 38 38 38 39 40 39 39 41 42 42 42 41 43 47 55 59 58 57 52 47
29 29 28 27 27 27 27 28 28 27 27 28 28 29 30 30 31 32 34 34 35 35 35 35 35 35 35 34 34 33 34 34 35 35 36 36 37 38 39 40 40 40 39 39 38 36 37 37 36 38 41 44 46 45 45 49 54 58 59 59 57 54 50
32 31 30 30 30 29 30 31 31 30 30 31 31 32 32 33 33 34 35 35 35 36 36 36 36 36 36 35 34 34 34 35 35 36 37 38 39 40 42 42 42 41 39 37 35 33 34 35 36 38 41 45 47 48 51 55 57 58 58 58 57 55 53
34 33 33 32 32 32 32 34 34 33 33 33 33 33 34 34 35 35 36 36 36 37 38 38 38 38 37 37 36 35 35 35 36 38 39 39 40 41 42 42 42 40 37 35 35 35 35 36 38 39 41 43 45 48 52 56 56 56 57 57 56 55 53
36 36 35 35 35 34 35 36 36 36 35 34 34 34 35 36 36 36 37 37 38 39 39 40 40 39 39 38 37 36 36 36 38 39 40 40 41 41 41 41 41 39 37 40 41 39 38 39 41 42 43 44 46 49 52 54 54 55 56 56 56 54 51
39 39 38 38 38 37 37 38 38 38 37 36 36 36 36 36 37 37 38 39 40 40 41 41 41 40 40 39 38 38 36 37 39 40 41 41 40 40 39 38 37 37 40 46 44 40 40 41 42 43 45 46 48 51 53 54 53 53 54 55 54 52 50
42 42 41 41 41 39 38 38 39 39 38 37 37 37 37 38 38 39 40 40 41 42 42 42 42 42 41 40 39 39 38 39 39 38 39 39 40 40 37 34 35 39 45 48 44 42 43 42 41 42 45 46 48 51 53 53 52 52 54 56 54 51 49
44 44 43 42 42 41 40 39 40 39 39 39 39 39 40 40 40 41 41 42 43 43 44 44 44 43 42 42 41 41 41 40 38 37 38 40 40 41 40 40 42 46 49 50 47 46 46 45 45 46 48 49 50 51 52 52 52 56 59 59 56 53 51
46 45 44 43 43 43 41 40 41 40 40 40 41 41 41 42 42 43 43 44 44 45 46 45 45 45 44 44 43 43 42 40 38 40 40 39 41 44 47 50 50 49 50 53 54 52 50 50 51 51 51 50 50 51 50 50 55 61 63 59 53 52 52
49 47 46 46 46 45 43 43 43 42 42 42 42 42 42 43 43 44 45 46 46 47 48 48 47 47 47 46 44 43 43 41 42 43 41 41 45 49 53 54 53 53 54 56 58 56 53 51 51 50 49 47 47 47 47 51 59 63 61 55 51 51 53
50 49 49 48 48 47 46 46 45 44 43 43 43 43 43 43 44 46 47 48 48 49 49 50 49 49 49 48 46 45 45 45 44 44 45 48 51 53 55 54 52 54 56 55 56 57 54 51 49 48 48 46 45 46 49 56 62 63 60 58 56 57 59
52 52 51 50 49 49 49 48 47 46 45 44 44 44 44 45 46 47 48 49 50 51 52 52 52 52 52 50 47 46 46 46 44 43 45 50 52 54 54 51 48 51 54 53 55 58 57 53 50 49 48 46 45 48 54 59 62 62 62 62 63 65 67
54 53 53 52 52 52 51 50 49 47 46 45 45 45 45 46 47 48 50 50 52 53 54 54 54 55 55 52 49 49 47 46 44 43 43 46 51 52 49 47 47 51 53 54 56 59 59 55 51 48 48 48 48 51 56 60 62 63 64 65 68 70 69
55 54 54 54 55 55 53 52 51 49 47 46 47 47 47 48 48 50 51 52 53 55 56 57 57 58 56 54 52 52 50 47 46 44 43 43 47 52 52 51 52 53 53 53 55 57 58 56 54 53 53 54 56 59 62 64 65 66 67 68 71 72 70
57 57 57 57 58 57 55 53 52 50 48 48 49 49 49 49 50 51 52 54 55 57 58 59 59 59 57 55 54 54 52 49 47 46 45 42 43 50 53 52 52 52 50 50 52 55 57 58 59 62 63 64 65 67 68 68 67 68 69 71 73 74 75
59 60 60 60 60 58 56 55 54 52 50 50 51 51 51 51 52 53 55 56 58 59 59 60 60 60 58 57 57 56 54 52 49 46 45 43 43 46 49 49 49 49 48 49 53 56 58 60 63 66 68 70 70 72 72 72 71 72 73 75 76 77 77
61 62 63 63 61 59 58 58 56 53 52 53 53 53 53 53 54 55 57 58 59 60 61 61 61 60 59 59 59 59 58 56 53 48 45 44 44 45 47 49 49 48 49 53 56 59 60 62 63 66 68 70 72 74 75 75 76 76 77 78 78 78 78
63 64 65 64 62 60 60 60 58 56 55 55 55 55 55 55 56 58 58 59 60 61 62 62 61 61 61 61 62 63 62 60 57 53 48 45 45 46 47 50 51 51 54 57 60 61 62 62 64 66 68 69 71 73 75 76 76 76 77 77 78 78 78
65 66 66 65 63 62 63 62 60 58 57 57 57 57 57 57 59 60 60 61 62 63 64 64 63 62 63 63 64 64 64 63 61 57 53 50 48 48 50 52 55 56 58 61 63 64 64 65 66 67 68 69 71 72 73 75 75 75 75 76 77 78 78
67 67 67 66 65 64 64 64 62 60 59 58 58 58 58 59 61 62 62 63 64 65 66 66 65 65 65 65 66 66 65 65 63 60 57 54 52 51 53 55 58 60 62 64 65 66 67 67 67 68 68 69 70 71 72 73 73 73 73 74 75 77 78
68 69 68 67 67 66 66 66 63 61 61 61 60 60 60 61 64 65 65 65 66 67 68 67 67 67 67 68 68 68 67 66 65 62 61 58 55 54 56 59 61 63 64 66 68 68 68 68 68 68 68 69 70 70 70 71 71 71 71 72 74 75 76
71 71 70 70 68 68 69 68 64 62 65 66 63 61 62 63 66 68 68 69 69 69 70 69 68 68 69 69 68 69 69 67 66 64 63 61 58 58 59 61 63 65 66 68 70 70 68 68 67 67 67 68 68 69 69 69 70 70 70 72 74 75 76
73 73 72 72 70 70 71 70 67 65 68 69 68 66 65 66 67 69 71 71 72 72 72 71 70 70 69 69 68 69 69 67 66 65 64 62 61 61 63 64 65 66 67 68 69 68 66 66 66 66 67 68 68 67 67 67 67 67 69 72 74 75 76
75 75 75 74 73 73 73 73 71 69 70 72 72 70 69 69 69 70 72 73 73 74 73 73 72 72 70 69 69 68 68 67 66 65 64 63 63 64 66 66 67 68 69 68 68 67 66 66 66 67 68 69 68 68 67 65 64 65 67 69 71 73 74
77 77 77 76 75 75 75 75 75 73 73 74 75 74 73 72 72 72 73 73 74 74 74 74 74 73 71 70 69 68 67 66 66 65 64 65 66 68 69 69 69 70 69 69 69 68 68 68 68 70 70 70 69 69 67 67 67 68 69 70 70 71 72
78 78 78 77 77 77 77 77 77 77 76 76 76 76 75 75 74 74 74 73 74 75 75 75 75 74 72 70 69 68 67 66 66 66 66 68 70 71 72 71 72 71 69 69 69 68 69 70 71 71 71 70 69 69 68 69 70 73 75 75 75 76 75
78 78 79 79 79 79 79 79 79 79 78 77 77 77 77 76 76 75 74 74 75 75 76 76 74 73 71 70 69 68 67 67 67 67 69 71 73 74 75 74 73 71 71 70 69 68 69 70 70 69 69 69 69 69 70 71 73 76 79 81 82 82 81
80 80 81 81 81 81 80 81 81 81 80 79 78 78 77 76 76 76 76 76 76 77 77 75 73 72 71 71 70 68 68 68 68 69 71 74 75 76 76 75 73 73 72 70 68 68 68 68 67 68 69 69 70 71 73 75 77 80 83 85 86 86 84
82 82 83 82 82 82 82 82 83 82 81 80 79 78 77 77 76 76 77 77 76 77 78 76 72 71 71 71 70 70 70 70 69 70 73 75 77 77 76 75 74 74 72 70 69 67 66 65 66 68 69 69 71 73 76 78 82 84 86 87 88 88 86
84 83 83 83 83 83 83 83 84 83 82 81 80 79 78 77 77 76 77 77 76 76 76 75 72 71 71 71 72 72 72 71 71 72 75 77 77 77 75 74 74 74 72 71 70 68 66 65 66 67 69 71 73 76 79 82 84 86 87 88 89 89 88
84 83 83 83 83 83 84 84 84 83 82 81 80 80 79 78 77 76 77 77 76 75 74 74 73 73 72 72 73 73 73 72 73 74 76 77 76 75 74 74 74 74 73 72 71 70 69 69 69 70 72 74 77 80 82 84 85 86 87 89 90 89 88
82 82 83 83 83 83 84 84 83 82 81 79 79 79 79 78 76 75 75 75 75 75 75 75 75 74 73 73 73 73 74 75 75 76 76 75 75 74 73 73 73 73 73 72 72 71 71 72 73 74 75 78 80 81 83 84 85 87 88 90 90 89 88
82 82 82 82 82 82 83 82 81 80 78 77 77 78 78 77 76 75 75 75 75 76 76 76 76 75 74 73 74 75 76 77 77 76 75 75 74 74 73 72 72 72 72 73 73 73 73 74 75 76 77 79 81 82 84 86 87 89 90 90 90 91 91
82 81 81 81 81 81 80 79 78 77 76 76 76 77 77 77 75 74 75 75 75 75 77 76 75 74 74 74 74 76 77 77 76 76 75 75 75 74 72 72 72 72 72 73 73 74 75 76 76 77 79 81 83 85 87 89 90 91 92 92 92 94 94
81 80 79 79 78 78 77 76 76 76 76 76 76 77 77 76 73 73 74 75 74 75 76 75 74 74 74 75 76 76 77 77 76 74 74 75 75 74 72 72 72 72 73 74 75 76 77 78 79 80 82 84 86 88 90 91 92 94 95 95 96 97 96
80 79 78 78 77 76 76 76 76 76 77 77 76 76 76 76 74 73 73 74 74 74 75 74 74 75 75 75 76 76 76 76 75 74 73 74 74 74 73 73 74 74 75 76 77 78 79 79 80 81 83 85 87 90 92 94 95 97 98 99 99 99 96
79 79 79 78 78 78 78 78 77 78 78 78 77 76 75 74 74 74 74 74 74 75 75 75 75 76 76 76 76 75 75 74 74 73 74 74 74 74 74 74 75 75 76 76 77 77 78 78 80 81 83 86 88 91 93 95 97 99 100 100 99 97 93
Wind_Direction
246 247 248 248 250 253 257 261 263 266 270 273 276 279 281 284 287 289 291 293 295 297 299 300 302 305 307 309 313 316 320 323 326 327 329 330 330 329 328 327 327 326 325 325 325 324 324 324 324 324 323 321 320 319 316 314 316 321 323 325 328 327 324
249 250 251 252 253 255 257 260 263 267 270 273 275 277 280 283 285 288 289 291 293 294 296 298 301 303 306 309 313 317 320 323 326 327 328 328 327 326 323 323 323 322 321 321 322 322 322 322 323 324 323 321 320 317 313 310 313 317 319 321 324 324 322
249 251 253 255 256 258 260 263 266 268 270 273 275 277 280 282 285 286 287 289 291 293 295 297 300 303 307 310 313 318 321 323 325 326 326 326 325 322 321 320 321 321 320 319 320 322 323 323 324 325 324 321 318 313 310 310 313 315 315 317 320 322 322
247 249 252 254 256 258 262 264 266 268 270 273 275 277 280 282 283 285 287 289 291 293 296 298 301 304 307 311 314 317 320 322 324 324 324 324 322 321 321 321 321 321 318 316 317 320 320 318 320 322 322 318 315 312 311 313 314 314 313 314 317 319 319
246 248 250 253 255 258 260 263 265 266 268 271 274 277 279 281 283 285 288 290 292 294 297 299 302 305 308 310 313 316 318 321 323 323 323 322 321 322 324 324 322 319 316 315 317 316 314 314 315 317 317 315 314 314 316 317 315 313 312 313 315 317 316
247 248 250 252 254 256 259 263 265 267 268 271 273 276 279 281 283 286 288 290 292 295 297 299 302 305 307 309 311 314 316 320 322 322 322 321 319 321 323 322 319 316 315 317 318 315 312 314 315 316 316 315 313 313 316 317 314 312 312 313 314 315 314
248 248 250 252 253 255 258 261 265 267 270 272 274 276 278 280 283 285 287 289 292 294 296 299 301 303 306 307 309 311 314 318 320 319 318 318 318 318 318 316 314 313 314 316 316 315 314 314 315 315 314 313 310 310 312 314 313 312 314 314 314 314 314
249 250 250 252 253 255 257 261 264 267 270 272 274 275 277 279 282 284 286 289 291 293 295 297 299 301 303 305 306 308 312 316 316 315 316 315 314 314 312 313 314 314 316 317 314 313 314 313 310 309 308 306 305 307 309 309 310 312 314 314 314 314 314
250 251 252 254 255 256 258 260 263 266 269 272 273 275 277 279 282 284 286 288 290 292 294 296 298 299 301 302 303 307 311 313 313 314 315 313 312 310 310 313 314 314 317 318 312 307 310 310 307 305 304 302 304 308 307 304 306 310 311 312 312 313 314
252 253 255 256 257 258 259 261 263 265 268 270 272 275 277 280 282 284 286 288 290 292 293 295 296 298 299 300 302 307 311 311 312 313 314 311 310 309 311 313 311 309 311 313 309 307 309 310 306 304 305 306 308 309 304 299 304 308 308 309 311 311 310
254 255 256 257 259 260 261 262 264 266 267 269 272 274 277 279 282 284 286 288 290 292 293 294 295 296 297 298 302 307 308 308 310 311 311 308 306 306 310 311 307 306 308 308 308 309 311 310 307 305 307 309 309 305 298 296 301 303 303 304 306 305 304
255 256 256 258 259 261 263 264 264 266 268 271 273 275 277 280 283 285 286 288 290 291 292 292 294 295 295 297 300 304 304 304 307 310 309 306 304 304 306 305 300 301 305 305 305 306 307 308 308 305 305 305 303 297 292 292 295 296 296 297 299 300 300
255 256 257 259 260 262 263 264 265 267 269 271 273 276 278 281 283 285 286 288 289 290 291 291 293 293 293 295 299 300 300 302 306 309 307 302 302 302 302 301 298 300 303 303 302 302 303 305 307 303 300 299 296 291 289 290 292 293 294 296 297 298 299
255 256 258 260 261 261 262 264 266 268 269 271 274 276 278 280 282 284 286 288 289 289 290 290 291 291 292 295 297 297 298 301 304 307 303 300 302 301 297 296 297 299 302 301 299 299 301 302 303 301 298 296 294 291 291 293 294 295 295 297 298 299 299
257 258 258 259 260 261 263 265 266 268 270 272 274 276 278 279 282 283 285 286 287 287 288 288 288 289 291 293 295 295 297 300 303 304 301 297 296 294 291 293 296 297 297 297 296 297 297 296 297 298 296 295 293 292 294 296 297 297 297 298 298 298 298
258 259 258 259 260 262 263 265 267 269 271 272 274 275 277 278 280 282 283 284 284 284 285 285 286 288 289 291 292 294 296 298 300 300 297 292 286 284 285 287 289 290 291 293 295 296 294 292 294 295 295 294 293 294 296 297 297 297 297 297 297 297 297
257 258 258 259 261 262 264 265 266 269 270 271 272 274 275 277 278 279 281 281 281 282 283 284 285 287 289 292 293 294 295 295 296 296 294 290 285 281 280 280 281 284 288 292 295 295 294 293 293 294 295 295 295 295 296 297 297 297 297 296 296 295 295
255 257 258 259 261 263 264 265 266 267 269 270 271 272 274 276 277 277 278 278 279 281 282 283 285 288 290 292 294 295 295 295 296 294 292 290 287 284 283 284 285 287 291 295 296 295 295 295 295 296 296 297 296 297 297 297 297 297 296 295 294 294 293
254 255 257 259 261 262 263 263 265 266 267 268 270 271 273 274 276 276 277 278 279 281 282 283 286 288 291 292 293 295 295 296 296 295 294 293 290 287 287 289 291 292 295 297 297 297 298 298 298 298 298 297 296 295 295 295 295 294 294 293 293 293 292
253 254 255 257 259 260 261 262 263 264 266 267 269 271 272 273 274 276 277 278 279 281 283 284 287 289 290 291 293 294 295 296 296 296 296 295 293 291 291 292 293 295 297 298 299 300 300 300 300 299 298 296 295 294 294 294 293 293 292 292 292 291 292
251 252 254 255 257 258 259 261 262 264 265 267 268 270 272 273 274 276 277 278 279 281 283 285 287 289 290 291 292 293 295 296 297 297 297 297 295 293 293 294 295 297 299 300 300 300 300 300 299 297 296 294 293 293 293 292 292 292 292 292 292 292 292
250 251 252 254 256 257 259 260 262 264 266 266 267 269 271 273 274 276 277 278 280 281 283 285 286 288 289 291 292 294 295 296 297 297 297 297 296 295 294 296 297 300 301 301 301 300 299 298 297 295 293 292 292 291 291 290 290 291 292 292 292 292 292
249 250 252 253 255 257 258 260 262 264 266 267 267 268 270 271 273 275 277 279 280 281 283 284 285 286 288 290 292 293 294 295 296 296 296 296 296 295 296 297 299 301 302 302 301 299 298 297 295 293 292 292 291 290 290 289 289 290 291 291 292 291 291
248 250 251 253 255 256 258 260 262 263 264 266 267 268 269 270 271 273 276 278 279 280 281 283 284 285 286 288 290 291 292 293 294 295 295 295 295 295 296 298 299 301 302 301 299 297 296 295 293 292 291 291 290 290 290 291 292 292 292 291 291 291 291
248 250 251 253 254 256 258 259 261 262 263 265 267 268 268 269 270 272 274 276 278 279 280 282 283 284 286 287 289 289 290 292 293 293 293 293 294 295 296 298 300 302 302 300 298 296 294 293 292 291 291 291 291 292 293 294 296 296 296 295 294 293 293
246 248 250 252 254 255 257 259 260 262 263 264 266 267 268 269 270 271 273 275 277 278 280 282 283 285 286 288 288 289 290 290 291 291 292 292 293 294 296 299 301 301 300 299 298 296 294 293 293 293 293 293 295 296 298 300 302 303 303 302 301 300 298
246 248 250 252 253 255 257 259 260 261 262 263 265 267 268 269 270 271 272 274 276 278 280 281 283 285 286 287 288 289 289 289 290 290 290 291 292 294 297 300 301 300 300 299 298 297 296 295 295 295 296 297 299 301 302 304 306 307 307 307 307 306 304
247 249 250 252 253 255 256 258 259 261 261 263 264 266 267 269 270 272 273 275 276 277 279 280 282 283 285 286 287 288 288 289 289 290 290 291 293 295 298 300 300 300 300 299 299 298 298 297 297 298 300 301 302 303 304 305 306 307 308 308 308 308 307
249 249 250 252 253 255 256 258 259 260 261 263 264 265 267 269 271 272 274 275 276 277 278 279 280 282 284 286 287 287 287 288 289 290 291 292 294 297 299 300 299 299 299 299 299 299 299 298 299 300 302 302 303 303 304 305 306 307 306 305 305 307 307
249 250 251 252 254 255 257 258 260 261 262 263 265 266 268 269 271 272 274 276 277 278 278 279 281 283 285 286 286 286 287 288 289 290 291 293 296 298 299 299 298 298 298 298 298 299 299 299 299 300 301 302 303 304 304 305 305 305 303 303 304 306 306
250 251 252 254 255 256 258 259 260 262 264 265 266 267 268 269 271 273 274 275 276 276 277 279 282 284 285 286 285 286 287 289 290 291 292 294 296 297 298 297 297 297 296 296 297 298 298 298 299 300 301 303 303 304 304 303 302 302 301 302 304 305 305
250 252 253 254 256 257 258 259 261 263 264 266 267 268 269 270 272 273 274 275 276 276 278 281 283 283 283 284 284 285 287 289 290 291 293 295 296 296 296 296 295 295 295 296 296 297 297 298 299 301 302 303 303 302 301 300 300 301 302 303 304 305 305
250 251 253 254 256 257 259 260 262 264 265 267 268 269 270 271 272 273 274 275 276 277 279 281 281 281 282 283 284 285 287 289 290 293 294 294 294 294 294 294 294 294 294 295 295 296 297 298 299 300 300 301 300 299 299 299 301 302 304 305 305 306 306
249 251 253 254 256 257 259 261 263 264 265 266 267 268 269 270 271 272 273 273 274 276 277 278 279 280 281 282 284 286 288 290 292 293 294 293 293 293 294 294 294 294 294 294 294 295 296 296 296 297 297 297 297 297 298 300 303 305 306 306 307 308 308
249 251 252 254 256 257 259 261 263 264 265 265 266 267 269 270 270 271 271 272 273 274 275 277 278 280 281 282 284 286 288 290 292 293 293 293 293 293 293 294 294 293 293 293 293 293 293 293 293 294 295 295 296 296 298 301 304 305 306 307 308 309 309
249 250 252 254 255 257 259 260 261 263 264 264 265 267 268 269 269 270 271 272 273 273 275 276 278 279 281 282 285 287 289 290 291 291 291 291 292 292 292 293 293 293 292 293 293 292 292 292 292 293 293 293 295 296 299 302 304 305 306 307 308 309 309
248 249 250 252 253 255 257 258 260 261 263 264 265 266 268 269 270 270 272 272 273 274 275 277 278 279 281 283 285 287 288 289 289 289 289 289 290 290 291 291 292 292 292 292 292 292 292 292 292 292 292 293 295 297 299 302 303 305 305 306 307 308 309
249 250 250 251 253 254 255 257 259 261 262 264 265 266 268 269 270 270 271 272 273 274 276 277 279 280 282 284 286 287 287 288 288 288 288 288 288 289 290 290 291 291 291 291 291 291 292 292 292 292 292 294 296 298 299 301 303 304 305 306 307 308 308
Height
10965 10965 10966 10967 10968 10968 10968 10969 10969 10969 10970 10970 10971 10971 10971 10971 10971 10971 10970 10970 10970 10970 10969 10969 10969 10968 10968 10968 10967 10967 10965 10964 10963 10961 10959 10957 10954 10953 10950 10948 10946 10943 10941 10939 10937 10935 10933 10932 10930 10928 10927 10925 10924 10923 10921 10918 10916 10914 10912 10910 10909 10907 10904
10962 10963 10963 10964 10965 10965 10966 10966 10966 10967 10967 10968 10968 10968 10968 10968 10968 10968 10967 10967 10967 10966 10966 10966 10966 10965 10965 10964 10964 10963 10962 10961 10959 10957 10955 10953 10951 10949 10947 10945 10942 10940 10938 10935 10933 10931 10929 10927 10925 10923 10922 10920 10919 10917 10915 10913 10911 10908 10906 10904 10903 10901 10899
10959 10960 10960 10961 10962 10962 10962 10962 10963 10964 10964 10965 10964 10964 10965 10965 10965 10964 10964 10964 10963 10963 10963 10962 10962 10961 10961 10961 10961 10960 10959 10957 10955 10953 10952 10950 10948 10945 10943 10941 10939 10936 10934 10931 10929 10927 10924 10922 10920 10918 10917 10915 10913 10912 10911 10909 10907 10904 10901 10899 10897 10895 10893
10956 10957 10958 10958 10958 10959 10959 10959 10959 10960 10961 10961 10961 10961 10961 10961 10961 10961 10960 10960 10959 10959 10958 10958 10957 10957 10957 10957 10957 10956 10955 10954 10952 10950 10948 10946 10943 10941 10938 10936 10934 10931 10929 10926 10924 10922 10920 10918 10916 10915 10913 10911 10909 10907 10906 10904 10901 10898 10896 10894 10892 10890 10888
10953 10954 10955 10955 10955 10956 10956 10955 10956 10957 10958 10958 10958 10958 10958 10957 10957 10957 10956 10956 10955 10955 10954 10953 10953 10953 10953 10953 10953 10952 10951 10950 10948 10946 10944 10941 10938 10936 10933 10931 10929 10927 10924 10922 10920 10917 10915 10913 10912 10911 10909 10907 10905 10902 10900 10897 10895 10893 10890 10888 10886 10885 10883
10949 10950 10951 10951 10952 10952 10952 10952 10952 10953 10954 10955 10955 10955 10954 10954 10953 10953 10952 10951 10951 10950 10949 10949 10949 10949 10949 10949 10949 10948 10947 10945 10944 10941 10939 10936 10934 10931 10929 10927 10925 10922 10920 10917 10915 10912 10910 10907 10906 10905 10903 10901 10899 10896 10894 10892 10889 10887 10885 10884 10882 10879 10877
10944 10945 10946 10947 10947 10948 10949 10948 10948 10949 10950 10951 10951 10951 10950 10950 10949 10948 10948 10947 10946 10946 10945 10945 10945 10945 10945 10944 10944 10943 10942 10941 10940 10937 10934 10932 10929 10927 10925 10924 10921 10918 10916 10913 10910 10907 10904 10902 10900 10898 10896 10894 10892 10890 10888 10886 10884 10883 10881 10879 10877 10875 10872
10939 10939 10941 10942 10943 10944 10945 10945 10945 10945 10946 10946 10946 10946 10946 10946 10945 10944 10943 10943 10942 10942 10941 10941 10940 10940 10940 10940 10939 10938 10938 10938 10936 10934 10931 10928 10926 10923 10921 10920 10917 10915 10912 10908 10905 10903 10900 10897 10895 10893 10890 10889 10887 10885 10883 10881 10879 10878 10875 10873 10871 10869 10868
10933 10934 10936 10937 10938 10940 10941 10942 10942 10942 10942 10942 10942 10942 10942 10941 10941 10940 10939 10938 10938 10937 10936 10936 10936 10936 10935 10934 10933 10934 10934 10933 10931 10929 10927 10924 10921 10918 10915 10913 10911 10909 10907 10904 10901 10899 10896 10892 10889 10887 10884 10882 10881 10880 10878 10876 10874 10872 10870 10867 10865 10863 10861
10927 10929 10931 10932 10933 10934 10937 10938 10938 10939 10939 10938 10938 10937 10937 10937 10936 10935 10934 10934 10933 10933 10932 10931 10931 10930 10930 10929 10929 10929 10929 10928 10926 10924 10922 10919 10917 10913 10910 10908 10905 10904 10905 10902 10897 10893 10890 10886 10882 10880 10878 10876 10875 10874 10872 10870 10867 10865 10863 10862 10859 10856 10854
10922 10924 10925 10927 10928 10929 10931 10932 10933 10934 10934 10934 10934 10934 10933 10933 10931 10930 10929 10929 10928 10928 10926 10925 10925 10925 10924 10923 10924 10925 10924 10923 10921 10919 10916 10914 10911 10908 10906 10904 10901 10899 10900 10899 10893 10888 10885 10881 10876 10873 10871 10870 10868 10867 10866 10864 10861 10858 10857 10855 10854 10851 10848
10917 10919 10920 10921 10922 10923 10925 10926 10927 10928 10929 10929 10929 10929 10929 10928 10927 10926 10925 10924 10923 10922 10921 10919 10919 10919 10917 10918 10920 10921 10919 10918 10917 10915 10910 10906 10904 10902 10900 10899 10896 10894 10894 10893 10889 10884 10881 10878 10872 10869 10866 10864 10863 10861 10860 10858 10855 10853 10851 10849 10847 10845 10842
10912 10913 10914 10916 10917 10918 10918 10919 10921 10923 10924 10924 10924 10924 10924 10923 10922 10921 10920 10919 10918 10916 10915 10914 10914 10912 10911 10913 10915 10915 10915 10913 10912 10911 10906 10899 10896 10895 10894 10892 10890 10890 10890 10889 10886 10881 10878 10875 10870 10866 10862 10858 10857 10855 10853 10851 10849 10847 10844 10842 10839 10837 10834
10906 10907 10909 10911 10911 10911 10912 10913 10915 10917 10919 10919 10919 10919 10919 10918 10917 10916 10915 10914 10912 10911 10909 10908 10907 10906 10905 10908 10909 10908 10908 10908 10908 10907 10902 10896 10891 10887 10885 10885 10884 10885 10887 10886 10882 10878 10875 10871 10866 10861 10858 10854 10851 10849 10847 10845 10843 10840 10837 10834 10831 10829 10827
10899 10901 10903 10904 10904 10904 10906 10908 10909 10911 10913 10914 10913 10914 10913 10913 10912 10911 10910 10909 10907 10905 10903 10901 10900 10899 10900 10902 10903 10901 10902 10903 10903 10900 10897 10893 10887 10880 10878 10881 10881 10881 10882 10881 10877 10874 10870 10866 10861 10857 10853 10850 10847 10844 10841 10839 10836 10832 10829 10825 10822 10820 10819
10892 10893 10895 10896 10897 10898 10900 10902 10903 10905 10907 10908 10908 10908 10908 10908 10907 10906 10904 10903 10900 10898 10896 10895 10894 10894 10895 10897 10897 10897 10898 10898 10898 10895 10891 10889 10886 10880 10879 10880 10879 10877 10877 10875 10871 10867 10863 10860 10856 10852 10849 10845 10842 10839 10836 10833 10831 10826 10822 10818 10814 10811 10810
10885 10885 10887 10888 10889 10892 10894 10895 10897 10899 10901 10902 10902 10902 10902 10902 10902 10900 10898 10895 10893 10891 10890 10888 10888 10888 10890 10891 10891 10891 10892 10892 10892 10891 10887 10884 10882 10879 10876 10875 10874 10873 10872 10869 10864 10860 10857 10855 10852 10848 10844 10840 10836 10832 10829 10826 10824 10821 10817 10812 10809 10805 10803
10879 10879 10879 10880 10883 10886 10888 10888 10891 10894 10896 10896 10896 10896 10896 10896 10895 10893 10891 10888 10886 10884 10883 10882 10882 10883 10884 10884 10883 10883 10883 10883 10883 10884 10883 10880 10876 10873 10869 10866 10866 10867 10865 10862 10858 10854 10851 10849 10845 10841 10837 10833 10829 10824 10821 10819 10817 10814 10810 10806 10802 10799 10796
10874 10874 10874 10874 10877 10880 10881 10882 10885 10888 10890 10890 10890 10890 10890 10890 10887 10884 10883 10881 10879 10878 10876 10875 10876 10877 10878 10877 10876 10874 10873 10873 10873 10874 10875 10875 10871 10867 10863 10860 10859 10859 10857 10854 10850 10847 10845 10841 10837 10833 10830 10826 10822 10818 10815 10812 10810 10807 10803 10799 10795 10792 10789
10868 10868 10868 10869 10872 10874 10874 10875 10878 10882 10883 10884 10884 10884 10883 10882 10880 10877 10876 10874 10872 10870 10869 10869 10870 10871 10871 10870 10868 10866 10864 10863 10863 10864 10866 10867 10865 10862 10858 10855 10853 10852 10850 10847 10843 10840 10837 10833 10829 10826 10823 10819 10815 10812 10809 10805 10802 10799 10796 10792 10788 10785 10782
10861 10861 10862 10864 10866 10867 10868 10869 10872 10875 10877 10877 10878 10877 10876 10874 10872 10870 10869 10867 10865 10864 10862 10862 10863 10864 10863 10862 10861 10859 10857 10855 10854 10855 10856 10857 10858 10856 10852 10848 10846 10845 10843 10839 10835 10832 10829 10826 10823 10819 10816 10812 10809 10805 10802 10798 10794 10791 10787 10784 10780 10777 10774
10853 10853 10855 10857 10859 10861 10860 10861 10865 10868 10868 10869 10871 10871 10870 10868 10865 10863 10862 10860 10859 10857 10856 10856 10856 10856 10855 10854 10852 10851 10849 10848 10847 10847 10847 10848 10849 10848 10845 10842 10839 10837 10835 10830 10826 10824 10821 10818 10815 10811 10808 10805 10802 10797 10794 10790 10786 10783 10779 10775 10772 10768 10765
10845 10846 10848 10849 10852 10854 10853 10854 10859 10862 10859 10858 10862 10864 10864 10862 10859 10856 10854 10853 10852 10851 10850 10849 10850 10849 10848 10846 10846 10844 10842 10841 10840 10839 10839 10839 10840 10839 10837 10835 10833 10830 10827 10823 10819 10816 10813 10810 10807 10802 10799 10797 10794 10790 10786 10783 10779 10776 10772 10768 10764 10761 10757
10837 10838 10840 10842 10844 10846 10846 10847 10851 10854 10851 10849 10851 10855 10856 10855 10854 10851 10848 10847 10845 10844 10843 10842 10842 10842 10841 10841 10840 10838 10837 10836 10834 10833 10832 10831 10831 10831 10829 10828 10826 10824 10821 10817 10813 10810 10807 10803 10799 10794 10790 10788 10786 10782 10778 10775 10771 10768 10765 10761 10757 10753 10750
10828 10830 10831 10834 10836 10837 10839 10840 10841 10844 10845 10842 10841 10844 10845 10846 10847 10845 10842 10840 10839 10837 10836 10836 10835 10834 10834 10834 10834 10833 10831 10830 10828 10827 10825 10823 10822 10822 10821 10820 10819 10817 10814 10810 10807 10803 10800 10796 10792 10788 10784 10781 10777 10774 10770 10767 10764 10761 10757 10753 10749 10745 10741
10820 10821 10823 10826 10827 10829 10831 10831 10831 10834 10836 10834 10833 10833 10835 10837 10838 10837 10836 10834 10833 10831 10830 10829 10827 10826 10827 10827 10826 10825 10825 10824 10822 10820 10818 10816 10813 10812 10812 10812 10811 10808 10806 10802 10798 10795 10791 10787 10784 10780 10776 10772 10768 10765 10762 10758 10755 10752 10748 10744 10741 10737 10733
10812 10813 10815 10817 10818 10820 10821 10822 10822 10824 10825 10826 10825 10825 10826 10827 10828 10829 10829 10829 10828 10826 10824 10822 10820 10819 10819 10819 10818 10817 10817 10817 10815 10813 10810 10807 10804 10803 10803 10803 10801 10799 10796 10793 10788 10785 10781 10777 10774 10770 10766 10763 10759 10756 10753 10751 10748 10744 10739 10736 10732 10728 10725
10806 10807 10807 10808 10809 10811 10812 10813 10813 10814 10815 10817 10817 10817 10818 10819 10820 10822 10823 10823 10822 10820 10817 10815 10814 10813 10812 10812 10811 10810 10810 10809 10808 10806 10802 10798 10795 10794 10793 10792 10791 10788 10785 10782 10778 10775 10771 10767 10764 10760 10757 10754 10750 10747 10745 10742 10739 10736 10731 10727 10723 10720 10716
10799 10799 10798 10800 10801 10803 10803 10804 10804 10805 10807 10809 10810 10811 10812 10813 10814 10815 10815 10814 10814 10812 10810 10808 10807 10806 10805 10805 10804 10804 10803 10802 10801 10798 10794 10789 10787 10785 10784 10782 10780 10777 10775 10772 10769 10766 10762 10758 10755 10752 10749 10746 10742 10739 10736 10733 10730 10727 10723 10719 10715 10711 10707
10790 10790 10791 10793 10794 10795 10795 10795 10795 10796 10799 10801 10803 10805 10806 10807 10808 10808 10807 10806 10805 10803 10801 10801 10801 10800 10799 10797 10796 10796 10795 10794 10793 10790 10786 10782 10780 10777 10775 10773 10770 10767 10764 10762 10760 10757 10754 10750 10747 10744 10741 10738 10734 10731 10727 10725 10722 10718 10714 10709 10705 10701 10697
10782 10783 10785 10786 10786 10787 10787 10787 10787 10789 10791 10794 10796 10798 10799 10799 10801 10801 10800 10798 10797 10794 10793 10794 10795 10794 10792 10790 10788 10787 10787 10786 10785 10782 10779 10775 10773 10770 10767 10764 10760 10757 10755 10753 10750 10748 10745 10742 10739 10736 10732 10729 10726 10722 10719 10717 10713 10708 10704 10699 10695 10691 10687
10775 10777 10778 10778 10778 10779 10779 10779 10780 10783 10785 10787 10788 10789 10789 10791 10793 10793 10791 10789 10788 10786 10785 10786 10787 10786 10785 10783 10781 10781 10780 10778 10776 10774 10771 10768 10765 10762 10759 10755 10751 10748 10746 10743 10741 10739 10736 10733 10730 10727 10724 10721 10718 10715 10711 10708 10704 10699 10694 10689 10685 10681 10676
10767 10768 10769 10769 10770 10771 10771 10771 10774 10777 10779 10781 10780 10779 10780 10782 10784 10784 10783 10781 10780 10779 10778 10779 10779 10778 10777 10776 10774 10774 10772 10769 10767 10766 10763 10759 10756 10753 10751 10746 10742 10739 10737 10734 10731 10729 10726 10723 10720 10718 10715 10713 10709 10706 10702 10698 10694 10689 10684 10678 10673 10669 10665
10759 10760 10761 10762 10763 10763 10764 10765 10768 10770 10772 10773 10773 10772 10772 10773 10775 10776 10775 10774 10773 10773 10772 10772 10772 10771 10770 10768 10767 10765 10762 10760 10758 10756 10753 10750 10747 10744 10742 10738 10734 10731 10728 10725 10722 10719 10716 10714 10711 10709 10707 10704 10700 10696 10692 10687 10683 10679 10674 10668 10663 10658 10654
10751 10752 10753 10754 10755 10756 10758 10760 10761 10762 10763 10765 10765 10764 10764 10765 10766 10766 10766 10766 10766 10766 10765 10765 10765 10764 10762 10760 10759 10756 10753 10750 10748 10746 10743 10739 10736 10735 10733 10729 10726 10723 10720 10717 10715 10712 10708 10705 10703 10700 10697 10694 10690 10685 10681 10677 10673 10669 10665 10660 10654 10650 10644
10743 10745 10745 10746 10747 10749 10751 10752 10753 10753 10754 10756 10757 10756 10756 10757 10758 10757 10756 10757 10757 10757 10757 10757 10756 10755 10754 10752 10750 10747 10744 10741 10739 10737 10733 10729 10725 10724 10722 10719 10717 10714 10711 10709 10706 10703 10700 10697 10694 10691 10687 10684 10679 10674 10670 10667 10664 10660 10655 10650 10645 10640 10634
10734 10736 10737 10738 10740 10741 10742 10743 10744 10745 10745 10747 10748 10748 10748 10748 10748 10748 10747 10746 10746 10746 10747 10748 10747 10746 10745 10743 10740 10737 10734 10731 10729 10727 10724 10720 10716 10714 10712 10710 10707 10704 10701 10699 10696 10694 10691 10688 10684 10681 10678 10674 10670 10665 10660 10657 10654 10650 10644 10639 10634 10629 10624
10725 10727 10729 10730 10732 10734 10735 10735 10736 10736 10737 10739 10740 10740 10739 10739 10738 10738 10737 10737 10737 10737 10738 10738 10737 10737 10735 10734 10731 10728 10724 10721 10719 10717 10714 10711 10708 10705 10703 10700 10698 10694 10692 10689 10686 10684 10681 10678 10674 10670 10667 10664 10659 10655 10651 10647 10643 10638 10633 10628 10623 10618 10613